• In Italy
  • List of Countries
  • For 7 days
  • Water Temperature
  • Satellite Maps
  • Weather Map
  • Weather Widgets
  • user-avatar
    Login

    Hourly Weather Sharan

    Today, 22 September, Saturday

    Time Temperature Precipitation Wind Pressure Humidity
    00:00 +18°C° 0 mm 2 mps 590 mmHg 39%
    01:00 +18°C° 0 mm 2 mps 589 mmHg 41%
    02:00 +18°C° 0 mm 1 mps 589 mmHg 42%
    03:00 +16°C° 0 mm 1 mps 589 mmHg 43%
    04:00 +16°C° 0 mm 1 mps 589 mmHg 45%
    05:00 +15°C° 0 mm 1 mps 588 mmHg 46%
    06:00 +16°C° 0 mm 1 mps 589 mmHg 43%
    07:00 +18°C° 0 mm 1 mps 589 mmHg 40%
    08:00 +19°C° 0 mm 1 mps 590 mmHg 37%
    09:00 +20°C° 0 mm 1 mps 590 mmHg 32%
    10:00 +20°C° 0 mm 2 mps 591 mmHg 27%
    11:00 +21°C° 0 mm 2 mps 591 mmHg 25%
    12:00 +22°C° 0 mm 3 mps 591 mmHg 23%
    13:00 +24°C° 0 mm 3 mps 591 mmHg 21%
    14:00 +25°C° 0 mm 4 mps 591 mmHg 19%
    15:00 +25°C° 0 mm 4 mps 591 mmHg 19%
    16:00 +25°C° 0 mm 4 mps 591 mmHg 18%
    17:00 +25°C° 0 mm 4 mps 590 mmHg 17%
    18:00 +23°C° 0 mm 4 mps 590 mmHg 19%
    19:00 +22°C° 0 mm 3 mps 590 mmHg 21%
    20:00 +21°C° 0 mm 3 mps 590 mmHg 23%
    21:00 +20°C° 0 mm 2 mps 590 mmHg 26%
    22:00 +19°C° 0 mm 2 mps 590 mmHg 30%
    23:00 +18°C° 0 mm 2 mps 590 mmHg 33%

    Tomorrow, 23 September, Sunday

    Time Temperature Precipitation Wind Pressure Humidity
    00:00 +18°C° 0 mm 2 mps 589 mmHg 36%
    01:00 +17°C° 0 mm 2 mps 589 mmHg 39%
    02:00 +16°C° 0 mm 1 mps 589 mmHg 42%
    03:00 +16°C° 0 mm 1 mps 588 mmHg 44%
    04:00 +15°C° 0 mm 1 mps 588 mmHg 46%
    05:00 +14°C° 0 mm 1 mps 588 mmHg 48%
    06:00 +14°C° 0 mm 0 mps 588 mmHg 45%
    07:00 +15°C° 0 mm 0 mps 589 mmHg 42%
    08:00 +16°C° 0 mm 0 mps 590 mmHg 39%
    09:00 +19°C° 0 mm 1 mps 590 mmHg 32%
    10:00 +20°C° 0 mm 1 mps 590 mmHg 25%
    11:00 +21°C° 0 mm 2 mps 591 mmHg 18%
    12:00 +23°C° 0 mm 2 mps 591 mmHg 16%
    13:00 +24°C° 0 mm 3 mps 590 mmHg 13%
    14:00 +25°C° 0 mm 3 mps 590 mmHg 11%
    15:00 +25°C° 0 mm 3 mps 590 mmHg 10%
    16:00 +25°C° 0 mm 3 mps 590 mmHg 10%
    17:00 +25°C° 0 mm 3 mps 589 mmHg 10%
    18:00 +22°C° 0 mm 3 mps 589 mmHg 12%
    19:00 +21°C° 0 mm 3 mps 589 mmHg 15%
    20:00 +20°C° 0 mm 2 mps 589 mmHg 18%
    21:00 +19°C° 0 mm 2 mps 589 mmHg 22%
    22:00 +18°C° 0 mm 2 mps 589 mmHg 26%
    23:00 +17°C° 0 mm 2 mps 589 mmHg 30%

    Day after tomorrow, 24 September, Monday

    Time Temperature Precipitation Wind Pressure Humidity
    00:00 +17°C° 0 mm 2 mps 588 mmHg 34%
    01:00 +16°C° 0 mm 1 mps 588 mmHg 38%
    02:00 +15°C° 0 mm 1 mps 587 mmHg 42%
    03:00 +15°C° 0 mm 1 mps 587 mmHg 44%
    04:00 +14°C° 0 mm 1 mps 587 mmHg 46%
    05:00 +14°C° 0 mm 1 mps 586 mmHg 49%
    06:00 +14°C° 0 mm 1 mps 587 mmHg 45%
    07:00 +15°C° 0 mm 1 mps 588 mmHg 42%
    08:00 +16°C° 0 mm 1 mps 588 mmHg 38%
    09:00 +19°C° 0 mm 1 mps 589 mmHg 32%
    10:00 +20°C° 0 mm 1 mps 589 mmHg 25%
    11:00 +21°C° 0 mm 1 mps 590 mmHg 18%
    12:00 +23°C° 0 mm 1 mps 589 mmHg 16%
    13:00 +24°C° 0 mm 2 mps 589 mmHg 14%
    14:00 +25°C° 0 mm 3 mps 589 mmHg 12%
    15:00 +25°C° 0 mm 3 mps 589 mmHg 12%
    16:00 +25°C° 0 mm 4 mps 589 mmHg 12%
    17:00 +25°C° 0 mm 4 mps 588 mmHg 12%
    18:00 +23°C° 0 mm 4 mps 588 mmHg 14%
    19:00 +21°C° 0 mm 4 mps 588 mmHg 16%
    20:00 +20°C° 0 mm 4 mps 588 mmHg 18%
    21:00 +19°C° 0 mm 4 mps 588 mmHg 20%
    22:00 +19°C° 0 mm 3 mps 588 mmHg 22%
    23:00 +18°C° 0 mm 3 mps 588 mmHg 24%

    25 September, Tuesday

    Time Temperature Precipitation Wind Pressure Humidity
    00:00 +17°C° 0 mm 2 mps 587 mmHg 24%
    01:00 +16°C° 0 mm 2 mps 587 mmHg 24%
    02:00 +16°C° 0 mm 2 mps 587 mmHg 25%
    03:00 +15°C° 0 mm 1 mps 586 mmHg 25%
    04:00 +14°C° 0 mm 1 mps 586 mmHg 25%
    05:00 +14°C° 0 mm 1 mps 586 mmHg 25%
    06:00 +15°C° 0 mm 1 mps 587 mmHg 23%
    07:00 +16°C° 0 mm 1 mps 587 mmHg 20%
    08:00 +18°C° 0 mm 1 mps 588 mmHg 18%
    09:00 +19°C° 0 mm 1 mps 589 mmHg 16%
    10:00 +21°C° 0 mm 1 mps 589 mmHg 15%
    11:00 +20°C° 0 mm 0 mps 590 mmHg 13%
    12:00 +23°C° 0 mm 1 mps 590 mmHg 12%
    13:00 +24°C° 0 mm 2 mps 590 mmHg 12%
    14:00 +25°C° 0 mm 3 mps 590 mmHg 11%
    15:00 +25°C° 0 mm 3 mps 589 mmHg 11%
    16:00 +25°C° 0 mm 3 mps 589 mmHg 11%
    17:00 +25°C° 0 mm 4 mps 589 mmHg 12%
    18:00 +23°C° 0 mm 4 mps 589 mmHg 14%
    19:00 +22°C° 0 mm 3 mps 589 mmHg 17%
    20:00 +20°C° 0 mm 3 mps 589 mmHg 19%
    21:00 +20°C° 0 mm 3 mps 588 mmHg 21%
    22:00 +19°C° 0 mm 2 mps 588 mmHg 23%
    23:00 +18°C° 0 mm 2 mps 588 mmHg 25%

    26 September, Wednesday

    Time Temperature Precipitation Wind Pressure Humidity
    00:00 +17°C° 0 mm 2 mps 587 mmHg 27%
    01:00 +16°C° 0 mm 2 mps 587 mmHg 29%
    02:00 +16°C° 0 mm 1 mps 586 mmHg 32%
    03:00 +15°C° 0 mm 1 mps 586 mmHg 33%
    04:00 +14°C° 0 mm 1 mps 586 mmHg 35%
    05:00 +14°C° 0 mm 1 mps 586 mmHg 36%
    06:00 +15°C° 0 mm 1 mps 586 mmHg 33%
    07:00 +16°C° 0 mm 1 mps 587 mmHg 29%
    08:00 +18°C° 0 mm 1 mps 588 mmHg 26%
    09:00 +19°C° 0 mm 1 mps 588 mmHg 22%
    10:00 +21°C° 0 mm 1 mps 589 mmHg 18%
    11:00 +22°C° 0 mm 1 mps 589 mmHg 14%
    12:00 +23°C° 0 mm 2 mps 589 mmHg 13%
    13:00 +24°C° 0 mm 3 mps 589 mmHg 11%
    14:00 +25°C° 0 mm 3 mps 589 mmHg 10%
    15:00 +25°C° 0 mm 4 mps 589 mmHg 11%
    16:00 +25°C° 0 mm 4 mps 589 mmHg 12%
    17:00 +25°C° 0 mm 5 mps 589 mmHg 13%
    18:00 +23°C° 0 mm 5 mps 589 mmHg 16%
    19:00 +22°C° 0 mm 4 mps 589 mmHg 19%
    20:00 +21°C° 0 mm 4 mps 589 mmHg 22%
    21:00 +21°C° 0 mm 3 mps 589 mmHg 24%
    22:00 +20°C° 0 mm 2 mps 589 mmHg 25%
    23:00 +19°C° 0 mm 2 mps 589 mmHg 27%

    27 September, Thursday

    Time Temperature Precipitation Wind Pressure Humidity
    00:00 +19°C° 0.1 mm 2 mps 588 mmHg 29%
    01:00 +18°C° 0.1 mm 3 mps 588 mmHg 31%
    02:00 +17°C° 0.1 mm 3 mps 588 mmHg 33%
    03:00 +17°C° 0.1 mm 3 mps 587 mmHg 36%
    04:00 +16°C° 0.1 mm 2 mps 587 mmHg 38%
    05:00 +15°C° 0.1 mm 1 mps 587 mmHg 41%
    06:00 +16°C° 0 mm 1 mps 587 mmHg 40%
    07:00 +16°C° 0 mm 1 mps 588 mmHg 39%
    08:00 +16°C° 0 mm 1 mps 588 mmHg 37%
    09:00 +17°C° 0 mm 2 mps 589 mmHg 34%
    10:00 +18°C° 0 mm 2 mps 589 mmHg 31%
    11:00 +19°C° 0 mm 2 mps 590 mmHg 28%
    12:00 +20°C° 0 mm 3 mps 590 mmHg 25%
    13:00 +21°C° 0 mm 4 mps 590 mmHg 21%
    14:00 +22°C° 0 mm 5 mps 590 mmHg 18%
    15:00 +22°C° 0 mm 5 mps 590 mmHg 18%
    16:00 +22°C° 0 mm 5 mps 590 mmHg 18%
    17:00 +22°C° 0 mm 5 mps 589 mmHg 17%
    18:00 +21°C° 0 mm 5 mps 590 mmHg 20%
    19:00 +20°C° 0 mm 4 mps 590 mmHg 23%
    20:00 +19°C° 0 mm 4 mps 590 mmHg 26%
    21:00 +18°C° 0 mm 4 mps 590 mmHg 29%
    22:00 +17°C° 0 mm 3 mps 590 mmHg 32%
    23:00 +17°C° 0 mm 3 mps 590 mmHg 34%
    Show more